Weather History for Milwaukee Timmerman, WI

Change the Weather History Date:

Monday, January 13, 2014

  Actual Average Record
Temperature  
Mean Temperature 34 °F -  
Max Temperature 41 °F 28 °F 55 °F (1961)
Min Temperature 26 °F 14 °F -12 °F (1963)
Degree Days  
Heating Degree Days 32    
Moisture  
Dew Point 28 °F    
Average Humidity 79    
Maximum Humidity 87    
Minimum Humidity 65    
Precipitation  
Precipitation 0.00 in - - ()
Sea Level Pressure  
Sea Level Pressure 29.59 in    
Wind  
Wind Speed 8 mph (WSW)    
Max Wind Speed 15 mph    
Max Gust Speed 22 mph    
Visibility 10 miles    
Events      
Averages and records for this station are not official NWS values.
T = Trace of Precipitation, MM = Missing Value Source: NWS Daily Summary

Daily Weather History Graph

Daily Weather History Graph

Search for Another Location

Airport:

Trip Planner

Search our weather history database for the weather conditions in past years. The results will help you decide how hot, cold, wet, or windy it might be!

Date:

Astronomy

Jan. 13, 2014 Rise Set
Actual Time 7:21 AM CST 4:40 PM CST
Civil Twilight 6:50 AM CST 5:11 PM CST
Nautical Twilight 6:14 AM CST 5:47 PM CST
Astronomical Twilight 5:40 AM CST 6:21 PM CST
Moon 2:55 PM CST (1/13) 5:09 AM CST (1/13)
Length of Visible Light 10h 21m
Length of Day
9h 18m
Waxing Gibbous, 95% of the Moon is Illuminated
Jan 13
Waxing Gibbous
Jan 15
Full
Jan 23
Last Quarter
Jan 30
New
Feb 6
First Quarter

Hourly Weather History & Observations

Time (CST) Temp. Windchill Dew Point Humidity Pressure Visibility Wind Dir Wind Speed Gust Speed Precip Events Conditions
12:15 AM 37.4 °F 32.1 °F 32.0 °F 81% 29.55 in 10.0 mi SW 6.9 mph - N/A   Clear
12:35 AM 37.4 °F 32.1 °F 32.0 °F 81% 29.55 in 10.0 mi SW 6.9 mph - N/A   Clear
12:55 AM 37.4 °F 30.8 °F 32.0 °F 81% 29.54 in 10.0 mi SSW 9.2 mph - N/A   Clear
1:15 AM 37.4 °F 30.3 °F 32.0 °F 81% 29.55 in 10.0 mi SW 10.4 mph 16.1 mph N/A   Clear
1:35 AM 37.4 °F 30.3 °F 32.0 °F 81% 29.54 in 10.0 mi SW 10.4 mph - N/A   Scattered Clouds
1:55 AM 37.4 °F 30.8 °F 32.0 °F 81% 29.54 in 10.0 mi SW 9.2 mph 16.1 mph N/A   Mostly Cloudy
2:15 AM 35.6 °F 28.6 °F 32.0 °F 87% 29.54 in 10.0 mi SW 9.2 mph - N/A   Overcast
2:35 AM 35.6 °F 28.0 °F 32.0 °F 87% 29.53 in 10.0 mi SW 10.4 mph - N/A   Overcast
2:55 AM 35.6 °F 28.6 °F 32.0 °F 87% 29.54 in 10.0 mi SW 9.2 mph - N/A   Overcast
3:15 AM 35.6 °F 29.2 °F 32.0 °F 87% 29.53 in 10.0 mi SSW 8.1 mph - N/A   Overcast
3:35 AM 35.6 °F 29.2 °F 32.0 °F 87% 29.53 in 10.0 mi SW 8.1 mph - N/A   Overcast
3:55 AM 35.6 °F 28.6 °F 32.0 °F 87% 29.53 in 10.0 mi SW 9.2 mph - N/A   Overcast
4:15 AM 35.6 °F 29.2 °F 32.0 °F 87% 29.53 in 10.0 mi SW 8.1 mph - N/A   Overcast
4:35 AM 35.6 °F 29.9 °F 32.0 °F 87% 29.52 in 10.0 mi SW 6.9 mph - N/A   Overcast
4:55 AM 35.6 °F 30.7 °F 32.0 °F 87% 29.52 in 10.0 mi SW 5.8 mph - N/A   Overcast
5:15 AM 35.6 °F 29.9 °F 32.0 °F 87% 29.51 in 10.0 mi SW 6.9 mph - N/A   Overcast
5:35 AM 35.6 °F 29.2 °F 32.0 °F 87% 29.51 in 10.0 mi WSW 8.1 mph - N/A   Overcast
5:55 AM 35.6 °F 29.2 °F 32.0 °F 87% 29.51 in 10.0 mi WSW 8.1 mph - N/A   Overcast
6:15 AM 35.6 °F 29.9 °F 32.0 °F 87% 29.51 in 10.0 mi WSW 6.9 mph - N/A   Overcast
6:35 AM 35.6 °F 29.9 °F 32.0 °F 87% 29.51 in 10.0 mi West 6.9 mph - N/A   Overcast
6:45 AM 35.6 °F 28.6 °F 30.2 °F 81% 29.51 in 10.0 mi West 9.2 mph - N/A   Overcast
7:45 AM 35.6 °F 29.2 °F 30.2 °F 81% 29.50 in 10.0 mi WSW 8.1 mph - N/A   Overcast
8:45 AM 37.4 °F 32.1 °F 30.2 °F 75% 29.53 in 10.0 mi West 6.9 mph - N/A   Overcast
9:45 AM 37.4 °F 31.4 °F 30.2 °F 75% 29.54 in 10.0 mi West 8.1 mph - N/A   Overcast
11:45 AM 39.2 °F 32.5 °F 30.2 °F 70% 29.51 in 10.0 mi West 10.4 mph - N/A   Overcast
12:45 PM 41.0 °F 33.1 °F 30.2 °F 65% 29.52 in 10.0 mi West 15.0 mph 21.9 mph N/A   Scattered Clouds
1:45 PM 41.0 °F - 30.2 °F 65% 29.52 in 10.0 mi North - - N/A   Clear
2:45 PM 39.2 °F 32.0 °F 30.2 °F 70% 29.55 in 10.0 mi WNW 11.5 mph 17.3 mph N/A   Mostly Cloudy
3:45 PM 37.4 °F 28.9 °F 28.4 °F 70% 29.59 in 10.0 mi WNW 13.8 mph - N/A   Mostly Cloudy
4:50 PM 35.6 °F 26.6 °F 26.6 °F 70% 29.62 in 10.0 mi West 13.8 mph - N/A   Scattered Clouds
5:45 PM 33.8 °F 27.0 °F 26.6 °F 75% 29.64 in 10.0 mi West 8.1 mph - N/A   Clear
6:50 PM 32.0 °F 26.4 °F 24.8 °F 75% 29.67 in 10.0 mi West 5.8 mph - N/A   Clear
7:50 PM 30.2 °F 22.6 °F 23.0 °F 75% 29.68 in 10.0 mi WSW 8.1 mph - N/A   Clear
8:15 PM 30.2 °F 23.4 °F 23.0 °F 75% 29.68 in 10.0 mi WSW 6.9 mph - N/A   Clear
8:35 PM 30.2 °F 25.4 °F 21.2 °F 69% 29.68 in 10.0 mi WSW 4.6 mph - N/A   Clear
8:45 PM 28.4 °F 23.3 °F 21.2 °F 74% 29.69 in 10.0 mi WSW 4.6 mph - N/A   Clear
8:55 PM 30.2 °F 25.4 °F 23.0 °F 75% 29.69 in 10.0 mi SW 4.6 mph - N/A   Clear
9:15 PM 28.4 °F 21.2 °F 23.0 °F 80% 29.70 in 10.0 mi WSW 6.9 mph - N/A   Clear
9:35 PM 28.4 °F 22.2 °F 21.2 °F 74% 29.71 in 10.0 mi WSW 5.8 mph - N/A   Clear
9:55 PM 28.4 °F 22.2 °F 21.2 °F 74% 29.71 in 10.0 mi WSW 5.8 mph - N/A   Clear
10:15 PM 28.4 °F 21.2 °F 21.2 °F 74% 29.72 in 10.0 mi WSW 6.9 mph - N/A   Clear
10:35 PM 28.4 °F 23.3 °F 21.2 °F 74% 29.72 in 10.0 mi WSW 4.6 mph - N/A   Clear
10:55 PM 26.6 °F 20.0 °F 19.4 °F 74% 29.72 in 10.0 mi WSW 5.8 mph - N/A   Clear
11:15 PM 26.6 °F 21.2 °F 19.4 °F 74% 29.73 in 10.0 mi SW 4.6 mph - N/A   Clear
11:35 PM 26.6 °F 20.0 °F 19.4 °F 74% 29.72 in 10.0 mi WSW 5.8 mph - N/A   Clear
11:55 PM 26.6 °F 21.2 °F 19.4 °F 74% 29.73 in 10.0 mi WSW 4.6 mph - N/A   Clear